Flag Weather past 2 weeks in Piešťany, Slovakia

Now
41 °F

Overcast.


Feels Like: 36 °F
Forecast: 32 / 43 °F
Wind: 8 mph from Southeast

Location: Piestany

Current Time: Nov 24, 2014 at 9:19:39 PM

Latest Report: Nov 24, 2014 at 9:00 PM


Visibility: N/A

Pressure: 30.36 "Hg

Humidity: 70%

Dew point: 32 °F

Location of PiešťanyLocation

Historic Weather in Piešťany — Graph

°F

Piešťany temperature yesterday

Maximum temperature yesterday: 45 °F (at 10:30 AM)
Minimum temperature yesterday: 34 °F (at 9:00 PM)
Average temperature yesterday: 41 °F

Past Weeks' High & Low Weather Summary

 TemperatureHumidityPressure
High63 °F (Nov 11, 11:00 AM)100% (Nov 14, 12:30 AM)30.42 "Hg (Nov 14, 12:30 AM)
Low28 °F (Nov 22, 2:00 AM)49% (Nov 13, 1:00 PM)29.74 "Hg (Nov 16, 2:00 AM)
Average48 °F80%30.04 "Hg
* Reported Nov 9 8:00 PM — Nov 24 8:00 PM, Piešťany, Weather by CustomWeather, © 2014

Note: Actual official high and low records may vary slightly from our data, if they occured in-between our weather recording intervals... More about our weather records

Advertising

Piešťany weather history for previous 24 hours

 ConditionsComfort  
Time TempWeatherWind HumidityBarometerVisibility
8:00 PM
Nov 24
41 °FOvercast.7 mph70%30.36 "HgN/A
7:30 PM41 °FOvercast.7 mph70%30.36 "HgN/A
7:00 PM41 °FOvercast.8 mph70%30.33 "HgN/A
6:30 PM41 °FOvercast.7 mph70%30.33 "HgN/A
6:00 PM41 °FOvercast.8 mph70%30.33 "HgN/A
5:30 PM41 °FOvercast.9 mph70%30.33 "HgN/A
5:00 PM41 °FOvercast.9 mph70%30.33 "HgN/A
4:30 PM41 °FOvercast.9 mph70%30.33 "HgN/A
4:00 PM41 °FOvercast.9 mph70%30.33 "HgN/A
3:30 PM41 °FOvercast.8 mph70%30.33 "HgN/A
3:00 PM43 °FOvercast.7 mph66%30.33 "HgN/A
2:30 PM43 °FOvercast.8 mph66%30.33 "HgN/A
2:00 PM43 °FOvercast.8 mph66%30.33 "HgN/A
1:30 PM43 °FOvercast.9 mph66%30.33 "HgN/A
1:00 PM43 °FOvercast.10 mph66%30.33 "Hg6 mi
12:30 PM43 °FOvercast.12 mph66%30.33 "Hg6 mi
12:00 PM43 °FOvercast.12 mph66%30.33 "Hg6 mi
11:30 AM41 °FOvercast.10 mph70%30.33 "Hg5 mi
11:00 AM41 °FOvercast.10 mph76%30.33 "Hg5 mi
10:30 AM41 °FOvercast.10 mph70%30.36 "Hg4 mi
10:00 AM41 °FOvercast.9 mph70%30.36 "HgN/A
9:30 AM41 °FOvercast.9 mph70%30.33 "HgN/A
9:00 AM41 °FOvercast.8 mph70%30.36 "HgN/A
8:30 AM41 °FOvercast.8 mph70%30.33 "Hg6 mi
8:00 AM41 °FOvercast.8 mph70%30.33 "Hg6 mi
7:30 AM41 °FOvercast.7 mph70%30.33 "Hg6 mi
7:00 AM41 °FOvercast.8 mph70%30.33 "Hg5 mi
6:30 AM41 °FPassing clouds.7 mph70%30.33 "Hg5 mi
6:00 AM41 °FPassing clouds.8 mph70%30.33 "Hg5 mi
5:30 AM41 °FOvercast.7 mph70%30.33 "Hg5 mi
5:00 AM39 °FOvercast.6 mph75%30.36 "Hg4 mi
4:30 AM41 °FOvercast.6 mph70%30.36 "Hg5 mi
4:00 AM39 °FOvercast.6 mph75%30.36 "Hg5 mi
3:30 AM41 °FOvercast.5 mph70%30.36 "Hg5 mi
3:00 AM39 °FOvercast.6 mph75%30.36 "Hg5 mi
2:30 AM39 °FOvercast.6 mph75%30.36 "Hg5 mi
2:00 AM39 °FOvercast.7 mph75%30.36 "Hg5 mi
1:30 AM39 °FOvercast.7 mph75%30.39 "Hg5 mi
12:30 AM39 °FOvercast.6 mph81%30.39 "Hg5 mi
12:00 AM39 °FOvercast.5 mph81%30.42 "Hg5 mi
11:30 PM
Nov 23
39 °FOvercast.6 mph81%30.42 "Hg4 mi
11:00 PM37 °FOvercast.5 mph87%30.42 "Hg4 mi
10:30 PM36 °FOvercast.6 mph87%30.42 "Hg4 mi
10:00 PM34 °FFog.5 mph93%30.42 "Hg3 mi
9:30 PM34 °FFog.2 mph93%30.42 "Hg3 mi
9:00 PM34 °FClear.1 mph93%30.39 "Hg10 mi
Weather by CustomWeather, © 2014

See weather overviewHow to use our weather pages